Location: Vancouver
(49.2500°N, 123.1330°W)
Time: 12:23:59
(UTC-07:00)

AO-27 - Visible Passes

Search period start: 22 May 2017 00:00
Search period end: 01 June 2017 00:00
Orbit: 785 x 798 km, 98.8° (Epoch: 21 May)

Date Brightness Start Highest point End Pass type
(mag) Time Alt. Az. Time Alt. Az. Time Alt. Az.
22 May 9.0 04:10:56 10° NNE 04:15:46 37° E 04:20:35 10° SSE visible
23 May 9.8 03:42:27 10° NE 03:46:27 22° E 03:50:27 10° SE visible
24 May 10.3 03:14:51 10° ENE 03:17:02 12° E 03:19:12 10° ESE visible
25 May 8.7 04:23:11 10° NNE 04:28:13 47° E 04:33:14 10° S visible
26 May 9.5 03:54:32 10° NE 03:58:58 27° E 04:03:23 10° SSE visible
27 May 10.1 03:26:25 10° NE 03:29:36 16° E 03:32:44 10° SE visible
29 May 9.2 04:06:43 10° NNE 04:11:27 34° E 04:16:11 10° SSE visible
30 May 9.9 03:38:19 10° NE 03:42:08 20° E 03:45:56 10° SE visible
31 May 10.4 03:11:07 10° ENE 03:12:40 11° E 03:14:14 10° ESE visible
